www.pogodaiklimat.ru

Погода и климат >> Архив погоды >> Россия >> Краснодарский край >> Сочи аэропорт (Адлер)


ПОГОДА в Сочи аэропорту (Адлер)

  • Прогноз погоды в Сочи аэропорту (Адлер)
  • Монитор погоды в Сочи аэропорту (Адлер)
  • Климат города

АРХИВ ПОГОДЫ в Сочи аэропорту (Адлер)

Время (UTC), дата Ветер
(напр.,м/с)
 
Видим.   Явления Облачность Т
(С)
Тd
(С)
f
(%)
Тe
(С)
Тes
(С)
Комфортность P
(гПа)
Po
(гПа)
Тmin
(С)
Tmax
(С)
R
(мм)
R24
(мм)
S
(см)
15 19.06 СЗ 3 20 км слабый ливневой дождь 9/6 660 м
[Cb cap Ac trans]
+20.1 +16.1 78 +23 +24 комфорт 1007.4 1005.6 +20.6 2
18 19.06 З 2 4000 м {ливн. осадки} 10/0
[Ac und]
+19.6 +16.8 84 +22 +22 комфорт 1007.9 1006.1
21 19.06 В 1 4000 м слабый ливневой дождь 10/10 900 м
[Cb cap]
+18.0 +17.4 96 +19 +19 1008.4 1006.6
00 20.06 В 2 4000 м в посл. час ливневой дождь 10/9 1020 м
[Cb cap Ac und]
+17.6 +16.9 96 +18 +18 1007.0 1005.2
03 20.06 СВ 2 10 км 10/10 870 м
[Cb cap]
+18.0 +17.0 94 +19 +19 1006.3 1004.6 +17.5 7
06 20.06 ЮЗ 2 10 км ливневой дождь 10/10 150 м
[Cb cap]
+17.6 +16.8 95 +18 +18 1007.6 1005.8
09 20.06 В 2 10 км слабый ливневой дождь 10/10 960 м
[Cb cap]
+18.6 +17.3 92 +20 +20 1008.8 1007.0
12 20.06 ЮЗ 3 10 км {ливн. осадки} 9/5 600 м
[Cu Sc Ac trans]
+20.6 +16.6 78 +24 +27 комфорт 1008.9 1007.1
15 20.06 ЮЗ 2 10 км 9/3 600 м
[Sc diur, vesp Ac trans Ci fib]
+20.8 +16.7 77 +25 +26 комфорт 1009.1 1007.3 +23.2 11
18 20.06 штиль 0 4000 м 10/3 600 м
[Sc diur, vesp Ac und]
+19.9 +17.3 85 +22 +22 комфорт 1010.1 1008.3
21 20.06 СВ 3 4000 м 9/6 930 м
[Sc Ac trans]
+18.6 +16.9 90 +20 +20 1010.2 1008.4
00 21.06 В 2 4000 м 4/0
[Ci fib]
+16.7 +15.9 95 +17 +17 1010.1 1008.3
03 21.06 СВ 3 20 км 6/0
[Ac trans Ci fib]
+17.0 +15.7 92 +17 +17 1010.3 1008.5 +16.0
06 21.06 В 1 20 км 5/1 1000 м
[Cu med, cong Ac trans]
+20.8 +16.2 75 +25 +34 комфорт 1010.3 1008.5
09 21.06 ЮЗ 3 10 км 4/3 600 м
[Cu med, cong Ac trans]
+22.2 +15.3 65 +26 +36 душно 1010.6 1008.9
12 21.06 ЮЗ 3 10 км 8/3 600 м
[Cb cap Ac trans]
+22.8 +16.9 69 +28 +32 душно 1010.8 1009.1
15 21.06 З 3 10 км 8/3 600 м
[Cb cap Ac trans]
+22.4 +16.9 71 +27 +28 душно 1010.4 1008.7 +24.2
18 21.06 штиль 0 4000 м 5/1 1000 м
[Sc Ac trans]
+21.0 +17.4 80 +25 +25 комфорт 1011.2 1009.4
21 21.06 штиль 0 4000 м 9/9 1440 м
[Sc]
+19.6 +17.7 89 +22 +22 комфорт 1011.5 1009.7
00 22.06 СВ 3 4000 м 9/9 1500 м
[Sc]
+19.4 +17.4 88 +22 +22 комфорт 1011.5 1009.7
03 22.06 В 3 20 км 3/3 1500 м
[Sc]
+18.6 +16.4 87 +20 +20 1011.8 1010.0 +17.7
06 22.06 Ю 2 20 км 3/3 600 м
[Cu hum]
+22.8 +17.4 72 +28 +36 душно 1012.3 1010.6
09 22.06 ЮЗ 3 10 км 4/4 1500 м
[Sc]
+23.0 +17.9 73 +28 +38 душно 1013.3 1011.6
12 22.06 10 км н/о +23.2 +18.1 73 +29 +32 душно 1013.2 1011.5
15 22.06 З 3 10 км 5/3 600 м
[St Ci fib]
+22.8 +17.5 72 +28 +29 душно 1013.2 1011.5 +24.8
18 22.06 В 1 4000 м 8/0
[Ac trans Ci fib]
+21.4 +17.4 78 +25 +25 комфорт 1014.3 1012.6
21 22.06 В 2 4000 м 8/5 600 м
[Sc Ac trans]
+18.2 +16.5 90 +19 +19 1015.0 1013.2
00 23.06 В 4 4000 м 8/3 600 м
[Sc Ci fib]
+18.6 +16.6 88 +19 +19 1014.7 1012.9
03 23.06 В 4 20 км {гроза} 5/3 1500 м
[Cb cap Ac trans]
+18.6 +15.9 84 +19 +20 1015.1 1013.3 +18.2
06 23.06 ЮВ 4 20 км {гроза} 10/10 1000 м
[Cu Sc]
+22.4 +17.9 76 +27 +27 душно 1016.1 1014.4
09 23.06 ЮВ 4
{10}
10 км 9/4 600 м
[Cb cap Ac trans]
+22.8 +16.2 66 +27 +31 душно 1016.9 1015.2
12 23.06 Ю 3
{10}
10 км 9/3 600 м
[Cb cap Ac trans]
+23.0 +18.4 75 +29 +33 очень
душно
1016.1 1014.4
15 23.06 Ю 3 10 км 8/1 600 м
[Cu med, cong Ac As]
+23.4 +17.1 68 +29 +29 душно 1015.6 1013.9 +24.7
18 23.06 В 1 4000 м 5/0
[Ac trans]
+21.4 +18.9 86 +26 +26 душно 1015.7 1014.0
21 23.06 В 3 4000 м 6/6 930 м
[Sc]
+18.8 +17.2 90 +20 +20 1015.8 1014.0
00 24.06 СВ 3 4000 м ясно +18.4 +15.1 81 +19 +19 1014.8 1013.0
03 24.06 В 5 20 км 4/1 1000 м
[Cu med, cong Ci fib]
+18.2 +14.4 78 +18 +19 1014.6 1012.8 +17.5
06 24.06 Ю 3 20 км ясно +22.8 +15.9 65 +27 +36 душно 1014.1 1012.4
09 24.06 Ю 4 20 км 4/4 600 м
[Cu hum]
+23.8 +19.1 75 +29 +37 душно 1013.7 1012.0
12 24.06 ЮЗ 4 20 км 1/1 600 м
[Cu hum]
+24.8 +17.8 65 +29 +37 душно 1012.3 1010.6
15 24.06 З 2 20 км ясно +24.5 +17.4 65 +29 +31 душно 1011.9 1010.2 +25.6
18 24.06 В 4 4000 м 9/3 1000 м
[Sc Ac trans]
+22.2 +18.4 79 +27 +27 душно 1010.6 1008.9
21 24.06 В 2 4000 м слабый ливневой дождь {гроза} 10/5 1000 м
[Cb cap Ac und]
+20.4 +18.5 89 +25 +25 комфорт 1012.8 1011.0
00 25.06 В 6 4000 м {гроза, ливн. осадки} 9/0
[Ac trans]
+19.2 +17.3 89 +21 +21 комфорт 1012.6 1010.8
03 25.06 В 2 20 км 9/1 1000 м
[Cu hum Ac trans]
+19.8 +14.7 72 +22 +23 комфорт 1013.7 1011.9 +18.8 3
06 25.06 ЮЗ 3 10 км слабый ливневой дождь 10/10 400 м
[Cb cap]
+22.6 +20.2 86 +29 +29 очень
душно
1015.0 1013.3
09 25.06 СВ 3 10 км слабый ливневой дождь 10/10 1000 м
[Cb cap]
+20.2 +19.0 93 +24 +24 комфорт 1016.6 1014.8
12 25.06 ЮВ 3 10 км {ливн. осадки} 3/3 1000 м
[Cu Sc]
+24.6 +18.3 68 +29 +37 душно 1016.3 1014.6
15 25.06 ЮЗ 2 10 км 1/1 1000 м
[Cu med, cong]
+24.4 +18.1 68 +29 +31 душно 1016.3 1014.6 +25.7 10
18 25.06 В 2 4000 м ясно +21.0 +18.1 84 +26 +26 душно 1016.6 1014.8
21 25.06 штиль 0 4000 м ясно +18.4 +16.8 90 +19 +19 1016.7 1014.9
00 26.06 В 4 4000 м ясно +18.0 +15.9 88 +18 +18 1016.4 1014.6
03 26.06 В 5 20 км ясно +18.4 +15.0 81 +19 +19 1015.8 1014.0 +17.5
06 26.06 ЮВ 1 20 км ясно +24.2 +17.3 65 +28 +41 душно 1015.7 1014.0
09 26.06 З 4 20 км ясно +24.0 +18.7 72 +29 +42 душно 1015.0 1013.3

 

Местоположение метеостанции Сочи аэропорт (Адлер) (Краснодарский край, Россия): широта 43.43 долгота 39.90 высота над уровнем моря 15 м.

В архиве по умолчанию представлена погода в Сочи аэропорту (Адлер) за последнюю неделю. Архивные данные за месяц целиком и за предыдущие месяцы, начиная с января 2011 года, Вы можете получить, выбрав интересующий диапазон дат из раскрывающегося списка и нажав кнопку "Ввод!".

Внимание! Время в таблицах - всемирное. Для получения местного времени необходимо прибавить поправку, которая в Сочи аэропорту (Адлер) равна 3 ч.

Смотрите также архив погоды в соседних городах и на ближайших метеорологических станциях:

Погода в Сочи (Краснодарский край, Россия) (20 км)
Погода в Кепше (Краснодарский край, Россия) (24 км)
Погода в Красной Поляне (Краснодарский край, Россия) (37 км)
Погода в Гузерипле (Адыгея, Россия) (66 км)
Погода в Туапсе (Краснодарский край, Россия) (100 км)
Погода в Псебае (Краснодарский край, Россия) (105 км)
Погода в Горном (Краснодарский край, Россия) (107 км)
Погода в Шунтуке (Адыгея, Россия) (117 км)
Погода в Майкопе (Адыгея, Россия) (133 км)
Погода в Джубге (Краснодарский край, Россия) (138 км)

Пояснения к столбцам:

Ветер - указаны скорость ветра в м/с - средняя за 10 мин, порывы в срок и между сроками (в фигурных скобках) и направление, откуда дует ветер: С - северный, СВ - северо-восточный, В - восточный, ЮВ - юго-восточный, Ю - южный, ЮЗ - юго-западный, З - западный, СЗ - северо-западный.
Видимость - горизонтальная дальность видимости в метрах или километрах. При видимости от 1 до 10 км при отсутствии осадков обычно наблюдается дымка, при ухудшении видимости до 1 км и менее - туман. В сухую погоду видимость может ухудшаться дымом, пылью или мглою.
Явления - указаны атмосферные явления, наблюдавшиеся в срок или в последний час перед сроком; фигурными скобками обозначены явления, наблюдавшиеся между сроками (за 1-3 часа до срока); квадратными скобками обозначены град или гололедные отложения с указанием их диаметра в мм.
Облачность - указаны через наклонную черту общая и нижняя облачность в баллах и высота нижней границы облаков в метрах; квадратными скобками обозначены формы облаков: Ci - перистые, Cs - перисто-слоистые, Cc - перисто-кучевые, Ac - высококучевые, As - высокослоистые, Sc - слоисто-кучевые, Ns - слоисто-дождевые, Cu - кучевые, Cb - кучево-дождевые. Подробнее классификацию облаков см. в Атласе облаков (PDF).
T - Температура воздуха - температура, измеренная на высоте 2 м над землей.
Td - Температура точки росы - температура, при понижении до которой содержащийся в воздухе водяной пар достигнет насыщения.
f - Относительная влажность воздуха - влажноcть воздуха, измеренная на высоте 2 м над землей.
Te - Эффективная температура - температура, которую ощущает одетый по сезону человек в тени. Характеристика душности погоды. При расчете учитывается влияние влажности воздуха и скорости ветра на теплоощущения человека.
Tes - Эффективная температура на солнце - температура, которую ощущает человек, с поправкой на солнечный нагрев. Характеристика знойности погоды. Зависит от высоты солнца над горизонтом, облачности и скорости ветра. Ночью, в пасмурную погоду, а также при ветре 12 м/с и более поправка равна нулю.
P - Атмосферное давление - приведенное к уровню моря атмосферное давление.
Po - Атмосферное давление - измеренное на уровне метеостанции атмосферное давление.
Tmin - Минимальная температура - минимум температуры воздуха на высоте 2 м над землей.
Tmax - Максимальная температура - максимум температуры воздуха на высоте 2 м над землей.
R - Количество осадков - Количество выпавших осадков за период времени, мм. При наведении курсора мыши на число - период времени, за который выпало указанное количество осадков.
R24 - Количество осадков - Количество выпавших осадков за 24 часа, мм.
S - Снежный покров - Высота снежного покрова, см. При наведении курсора мыши на число - состояние снежного покрова и степень покрытия местности в баллах.